Location: Newark
(50.4348°N, 30.5552°E)
Time: 19:15:30
(UTC+00:00)

Courier 1B Rocket - Pass Details

Date: 30 January 2020
Orbit: 920 x 1202 km, 28.2° (Epoch: 22 February)

Event Time Altitude Azimuth Distance (km) Brightness Sun altitude
Rises 09:37:25 0° 231° (SW) 4,003 8.6 21.4°
Reaches altitude 10° 09:42:54 10° 199° (SSW) 2,972 8.8 21.5°
Maximum altitude 09:44:48 11° 184° (S) 2,862 9.5 21.6°
Drops below altitude 10° 09:46:40 10° 168° (SSE) 2,917 9.7 21.6°
Sets 09:51:52 0° 136° (SE) 3,790 8.9 21.7°
